Regional Weather Roundup
Issued by NWS

Home | Current Version | Previous Version | Text Only | Print | Product List | Glossary On
Versions: 1 2 3 4 5 6 7 8 9 10 11 12 13 14 15 16 17 18 19 20 21 22 23 24 25 26 27
000
ASUS46 KSEW 290310
RWRWA

WASHINGTON REGIONAL WEATHER ROUNDUP
NATIONAL WEATHER SERVICE SEATTLE WA
800 PM PDT SUN AUG 28 2016

NOTE:"FAIR" INDICATES FEW OR NO CLOUDS BELOW 12,000 FEET WITH NO
SIGNIFICANT WEATHER AND/OR OBSTRUCTIONS TO VISIBILITY.

WAZ505-507>509-290400-
SEATTLE, TACOMA, EVERETT, AND VICINITY

CITY           SKY/WX    TMP DP  RH WIND       PRES   REMARKS
EVERETT        CLOUDY    60  53  77 N5        30.06S
BOEING FIELD   MOCLDY    66  54  65 NW12      30.04F
RENTON         MOCLDY    65  54  67 W6        30.03S
SEATAC AIRPORT MOCLDY    63  51  65 NW7       30.05S
JBLM-MCCHORD   PTCLDY    65  52  62 N8        30.04S
PUYALLUP       FAIR      64  54  68 CALM      30.05S
BREMERTON      MOCLDY    61  52  72 CALM      30.07F
JBLM-FT LEWIS  PTCLDY    65  53  64 NW8       30.04R
TACOMA NARROWS MOCLDY    62  52  69 N5        30.05F
$$

WAZ001-503-506-510-514-515-290400-
NORTH INTERIOR

CITY           SKY/WX    TMP DP  RH WIND       PRES   REMARKS
BELLINGHAM     CLOUDY    60  58  92 NW5       30.05F
FRIDAY HARBOR  CLOUDY    59  56  89 CALM      30.08R
EASTSOUND      CLOUDY    57  55  94 CALM      30.06R
PORT ANGELES   CLOUDY    57  54  89 CALM      30.08S
EDIZ HOOK      FAIR      54  52  93 N3        30.07S
PORT TOWNSEND  FAIR      59  55  88 CALM      30.06F
NAS WHIDBEY    CLOUDY    57  53  86 CALM      30.10S
ARLINGTON      CLOUDY    61  50  67 NW5       30.06S
BURLINGTON     MOCLDY    59  57  94 NW8       30.05S
$$

WAZ020-022-039-040-504-511-512-290400-
SOUTHWEST INTERIOR

CITY           SKY/WX    TMP DP  RH WIND       PRES   REMARKS
SHELTON        MOCLDY    65  55  70 N6        30.03S
OLYMPIA        PTCLDY    67  49  52 N6        30.04S
CHEHALIS       FAIR      70  55  60 VRB5      30.03R
KELSO          CLEAR     71  54  54 NW6       30.02R
VANCOUVER      CLEAR     78  52  40 NW6       29.98R
SCAPPOOSE, OR  CLEAR     75  52  44 N7        29.98R
PORTLAND, OR   PTCLDY    78  53  41 NW9       29.98S
$$

WAZ021-516-517-290400-
WASHINGTON COAST

CITY           SKY/WX    TMP DP  RH WIND       PRES   REMARKS
FORKS          CLOUDY    59  56  89 CALM      30.07F
HOQUIAM        PTCLDY    61  54  77 W6        30.06S
ASTORIA, OR    CLEAR     61  53  75 W7        30.06S
$$

WAZ019-023-024-040-518-519-290400-
CASCADE MOUNTAINS AND COLUMBIA GORGE

CITY           SKY/WX    TMP DP  RH WIND       PRES   REMARKS
STAMPEDE PASS  MOCLDY    63  32  31 CALM      30.15F
TROUTDALE, OR  CLEAR     77  55  46 CALM      29.97S
THE DALLES, OR CLEAR     84  46  26 NW8       29.93R
$$

WAZ026-027-041>044-520-521-290400-
EAST SLOPES

CITY           SKY/WX    TMP DP  RH WIND       PRES   REMARKS
OMAK           CLOUDY    77  37  23 SE5       30.01S
WENATCHEE      MOCLDY    77  39  25 N6        30.01R
ELLENSBURG     PTCLDY    72  46  39 NW10      30.02S
YAKIMA         PTCLDY    74  49  41 CALM      29.98R
$$

WAZ028-034-035-290400-
COLUMBIA BASIN

CITY           SKY/WX    TMP DP  RH WIND       PRES   REMARKS
EPHRATA        CLOUDY    78  38  23 CALM      30.01R
MOSES LAKE     MOCLDY    77  43  29 SE6       30.01R
PASCO          PTCLDY    77  49  37 CALM      29.96R
HERMISTON, OR  PTCLDY    77  43  29 NE6       29.95R
$$

WAZ036>038-290400-
NORTHEAST WASHINGTON

CITY           SKY/WX    TMP DP  RH WIND       PRES   REMARKS
SPOKANE GEIGER MOCLDY    75  33  21 CALM      30.08R
SPOKANE FELTS  CLEAR     71  33  24 N3        30.06R
FAIRCHILD AFB  CLEAR     69  32  25 W5        30.08R
COEURDALENE,ID CLEAR     72  37  28 CALM      30.06R
DEER PARK      CLEAR     64  31  28 NE3       30.08R
$$

WAZ029>033-290400-
SOUTHEAST WASHINGTON

CITY           SKY/WX    TMP DP  RH WIND       PRES   REMARKS
PULLMAN        PTCLDY    71  36  27 CALM      30.10R
LEWISTON, ID   PTCLDY    83  38  20 NE5       30.01R
WALLA WALLA    PTCLDY    79  39  23 CALM      29.99R
PENDLETON, OR  CLEAR     77  35  21 NE9       30.00R
$$




USA.gov is the U.S. government's official web portal to all federal, state and local government web resources and services.